Simultaneous Nadir Overpasses (SNOs) Predictions

Prediction of SNOs near equator between AQUA and NPP Satellite Orbit:

Table of predicted SNOs near equator for the next 14.0 days since TLE Epoch: 6/21/2019
Index Date (AQUA) Time (AQUA) AQUA Lat,Lon Date (NPP) Time (NPP) NPP Lat,Lon Distance(km) Time Diff (sec)
1 06/23/2019 07:53:34 -8.75, -95.75 06/23/2019 07:43:34 -8.79, -95.99 26.48 600
2 06/23/2019 08:41:11 1.84, 73.34 06/23/2019 08:32:23 1.72, 72.90 51.35 528
3 06/23/2019 09:29:17 2.73,-118.03 06/23/2019 09:21:45 2.90,-118.74 81.27 452
4 06/26/2019 00:08:56 -4.77, 20.98 06/25/2019 23:59:20 -4.73, 20.70 31.55 576
5 06/26/2019 00:57:12 0.23,-170.44 06/26/2019 00:48:51 0.13,-170.98 61.31 501
6 06/26/2019 01:45:18 4.35, -1.80 06/26/2019 01:38:13 4.50, -2.61 91.06 425
7 06/28/2019 16:24:59 -3.22, 137.19 06/28/2019 16:15:49 -3.14, 136.82 41.52 550
8 06/28/2019 17:13:15 -1.32, -54.23 06/28/2019 17:05:20 -1.46, -54.85 71.28 475
9 07/01/2019 07:52:54 6.15, 84.78 07/01/2019 07:42:55 6.11, 84.59 21.53 599
10 07/01/2019 08:41:01 -1.61,-106.59 07/01/2019 08:32:17 -1.49,-107.04 51.51 524
11 07/01/2019 09:29:16 -2.99, 62.01 07/01/2019 09:21:48 -3.11, 61.29 81.18 448
12 07/04/2019 00:08:57 4.60,-159.01 07/03/2019 23:59:24 4.53,-159.28 31.62 573
13 07/04/2019 00:57:03 0.00, 9.63 07/04/2019 00:48:46 0.10, 9.09 61.51 497
14 07/04/2019 01:45:19 -4.53, 178.21 07/04/2019 01:38:17 -4.70, 177.41 90.96 422




NCC Satellite Simultaneous Nadir Overpasses (SNOs) Prediction Service
